Year,Month,Day,Hour,Minute,Value (Times are PST for windgust in km/hr)
2015,08,30,02,53,4.80
2015,08,30,03,03,1.60
2015,08,30,03,04,4.80
2015,08,30,03,05,4.80
2015,08,30,03,06,1.60
2015,08,30,03,11,8.10
2015,08,30,03,12,9.60
2015,08,30,03,13,4.80
2015,08,30,03,14,3.20
2015,08,30,03,15,8.10
2015,08,30,03,16,8.10
2015,08,30,03,17,1.60
2015,08,30,03,19,8.10
2015,08,30,03,20,1.60
2015,08,30,03,21,3.20
2015,08,30,03,22,8.10
2015,08,30,03,23,9.60
2015,08,30,03,24,4.80
2015,08,30,03,25,9.60
2015,08,30,03,26,11.30
2015,08,30,03,27,16.10
2015,08,30,03,28,9.60
2015,08,30,03,29,6.40
2015,08,30,03,30,4.80
2015,08,30,03,31,8.10
2015,08,30,03,32,9.60
2015,08,30,03,33,8.10
2015,08,30,03,34,6.40
2015,08,30,03,35,1.60
2015,08,30,03,36,4.80
2015,08,30,03,37,6.40
2015,08,30,03,38,8.10
2015,08,30,03,39,6.40
2015,08,30,03,40,3.20
2015,08,30,03,41,3.20
2015,08,30,03,42,6.40
2015,08,30,03,43,3.20
2015,08,30,03,44,1.60
2015,08,30,03,45,1.60
2015,08,30,03,46,3.20
2015,08,30,03,58,4.80
2015,08,30,03,59,4.80
2015,08,30,04,01,3.20
2015,08,30,04,03,4.80
2015,08,30,04,04,8.10
2015,08,30,04,05,6.40
2015,08,30,04,07,6.40
2015,08,30,04,08,4.80
2015,08,30,04,09,1.60
2015,08,30,04,10,4.80
2015,08,30,04,12,6.40
2015,08,30,04,13,6.40
2015,08,30,04,15,3.20
2015,08,30,04,16,3.20
2015,08,30,04,19,6.40
2015,08,30,04,20,8.10
2015,08,30,04,21,4.80
2015,08,30,04,24,4.80
2015,08,30,04,25,1.60
2015,08,30,04,27,3.20
2015,08,30,04,29,1.60
2015,08,30,04,34,9.60
2015,08,30,04,35,6.40
2015,08,30,04,36,6.40
2015,08,30,04,37,6.40
2015,08,30,04,38,8.10
2015,08,30,04,39,4.80
2015,08,30,04,43,6.40
2015,08,30,04,45,6.40
2015,08,30,04,46,8.10
2015,08,30,04,47,8.10
2015,08,30,04,48,8.10
2015,08,30,04,49,8.10
2015,08,30,04,50,8.10
2015,08,30,04,51,8.10
2015,08,30,04,52,6.40
2015,08,30,04,53,8.10
2015,08,30,04,54,8.10
2015,08,30,04,55,6.40
2015,08,30,04,56,8.10
2015,08,30,04,57,8.10
2015,08,30,04,58,8.10
2015,08,30,04,59,8.10
2015,08,30,05,01,6.40
2015,08,30,05,02,4.80
2015,08,30,05,03,4.80
2015,08,30,05,04,4.80
2015,08,30,05,05,3.20
2015,08,30,05,08,4.80
2015,08,30,05,09,3.20
2015,08,30,05,31,1.60
2015,08,30,06,03,8.10
2015,08,30,06,04,4.80
2015,08,30,06,13,4.80
2015,08,30,08,43,8.10
2015,08,30,08,44,8.10
2015,08,30,08,45,8.10
2015,08,30,08,46,8.10
2015,08,30,08,47,9.60
2015,08,30,08,48,8.10
2015,08,30,08,49,11.30
2015,08,30,08,50,14.50
2015,08,30,08,51,11.30
2015,08,30,08,52,11.30
2015,08,30,08,53,6.40
2015,08,30,08,54,3.20
2015,08,30,08,55,4.80
2015,08,30,08,56,8.10
2015,08,30,08,57,8.10
2015,08,30,08,58,4.80
2015,08,30,08,59,6.40
2015,08,30,09,00,3.20
2015,08,30,09,01,6.40
2015,08,30,09,02,3.20
2015,08,30,09,03,8.10
2015,08,30,09,04,4.80
2015,08,30,09,05,4.80
2015,08,30,09,06,8.10
2015,08,30,09,07,4.80
2015,08,30,09,08,6.40
2015,08,30,09,09,1.60
2015,08,30,09,10,6.40
2015,08,30,09,11,8.10
2015,08,30,09,12,8.10
2015,08,30,09,13,6.40
2015,08,30,09,14,4.80
2015,08,30,09,15,1.60
2015,08,30,09,16,3.20
2015,08,30,09,18,1.60
2015,08,30,09,19,6.40
2015,08,30,09,20,3.20
2015,08,30,09,21,4.80
2015,08,30,09,42,6.40
2015,08,30,09,48,1.60
2015,08,30,09,56,6.40
2015,08,30,09,58,8.10
2015,08,30,09,59,8.10
2015,08,30,10,00,8.10
2015,08,30,10,01,4.80
2015,08,30,10,03,6.40
2015,08,30,10,04,8.10
2015,08,30,10,05,8.10
2015,08,30,10,07,6.40
2015,08,30,10,08,4.80
2015,08,30,10,11,6.40
2015,08,30,10,12,4.80
2015,08,30,10,13,6.40
2015,08,30,10,14,4.80
2015,08,30,10,15,9.60
2015,08,30,10,16,6.40
2015,08,30,10,17,3.20
2015,08,30,10,18,4.80
2015,08,30,10,19,9.60
2015,08,30,10,20,4.80
2015,08,30,10,21,3.20
2015,08,30,10,23,8.10
2015,08,30,10,24,6.40
2015,08,30,10,25,4.80
2015,08,30,10,26,4.80
2015,08,30,10,27,9.60
2015,08,30,10,28,9.60
2015,08,30,10,29,16.10
2015,08,30,10,30,9.60
2015,08,30,10,31,9.60
2015,08,30,10,32,9.60
2015,08,30,10,33,14.50
2015,08,30,10,34,14.50
2015,08,30,10,35,11.30
2015,08,30,10,36,9.60
2015,08,30,10,37,8.10
2015,08,30,10,38,9.60
2015,08,30,10,39,11.30
2015,08,30,10,40,9.60
2015,08,30,10,41,9.60
2015,08,30,10,42,8.10
2015,08,30,10,43,6.40
2015,08,30,10,44,4.80
2015,08,30,10,45,8.10
2015,08,30,10,46,8.10
2015,08,30,10,47,9.60
2015,08,30,10,48,9.60
2015,08,30,10,49,8.10
2015,08,30,10,50,11.30
2015,08,30,10,51,14.50
2015,08,30,10,52,9.60
2015,08,30,10,53,6.40
2015,08,30,10,54,8.10
2015,08,30,10,55,8.10
2015,08,30,10,56,4.80
2015,08,30,10,57,6.40
2015,08,30,10,58,9.60
2015,08,30,10,59,9.60
2015,08,30,11,00,9.60
2015,08,30,11,01,12.90
2015,08,30,11,02,11.30
2015,08,30,11,03,8.10
2015,08,30,11,04,11.30
2015,08,30,11,05,11.30
2015,08,30,11,06,14.50
2015,08,30,11,07,14.50
2015,08,30,11,08,16.10
2015,08,30,11,09,14.50
2015,08,30,11,10,16.10
2015,08,30,11,11,16.10
2015,08,30,11,12,16.10
2015,08,30,11,13,16.10
2015,08,30,11,14,11.30
2015,08,30,11,15,14.50
2015,08,30,11,16,17.70
2015,08,30,11,17,22.50
2015,08,30,11,18,19.30
2015,08,30,11,19,17.70
2015,08,30,11,20,14.50
2015,08,30,11,21,16.10
2015,08,30,11,22,16.10
2015,08,30,11,23,14.50
2015,08,30,11,24,19.30
2015,08,30,11,25,14.50
2015,08,30,11,26,14.50
2015,08,30,11,27,16.10
2015,08,30,11,28,16.10
2015,08,30,11,29,17.70
2015,08,30,11,30,12.90
2015,08,30,11,31,16.10
2015,08,30,11,32,9.60
2015,08,30,11,33,22.50
2015,08,30,11,34,11.30
2015,08,30,11,35,16.10
2015,08,30,11,36,24.20
2015,08,30,11,37,12.90
2015,08,30,11,38,16.10
2015,08,30,11,39,16.10
2015,08,30,11,40,16.10
2015,08,30,11,41,11.30
2015,08,30,11,42,14.50
2015,08,30,11,43,20.90
2015,08,30,11,44,20.90
2015,08,30,11,45,19.30
2015,08,30,11,46,16.10
2015,08,30,11,47,20.90
2015,08,30,11,48,17.70
2015,08,30,11,49,19.30
2015,08,30,11,50,17.70
2015,08,30,11,51,19.30
2015,08,30,11,52,19.30
2015,08,30,11,53,17.70
2015,08,30,11,54,14.50
2015,08,30,11,55,11.30
2015,08,30,11,56,16.10
2015,08,30,11,57,20.90
2015,08,30,11,58,14.50
2015,08,30,11,59,17.70
2015,08,30,12,00,19.30
2015,08,30,12,01,19.30
2015,08,30,12,02,16.10
2015,08,30,12,03,17.70
2015,08,30,12,04,20.90
2015,08,30,12,05,17.70
2015,08,30,12,06,17.70
2015,08,30,12,07,20.90
2015,08,30,12,08,16.10
2015,08,30,12,09,14.50
2015,08,30,12,10,14.50
2015,08,30,12,11,19.30
2015,08,30,12,12,19.30
2015,08,30,12,13,16.10
2015,08,30,12,14,16.10
2015,08,30,12,15,22.50
2015,08,30,12,16,20.90
2015,08,30,12,17,19.30
2015,08,30,12,18,20.90
2015,08,30,12,19,20.90
2015,08,30,12,20,19.30
2015,08,30,12,21,22.50
2015,08,30,12,22,20.90
2015,08,30,12,23,14.50
2015,08,30,12,24,19.30
2015,08,30,12,25,20.90
2015,08,30,12,26,17.70
2015,08,30,12,27,20.90
2015,08,30,12,28,17.70
2015,08,30,12,29,22.50
2015,08,30,12,30,22.50
2015,08,30,12,31,17.70
2015,08,30,12,32,14.50
2015,08,30,12,33,17.70
2015,08,30,12,34,11.30
2015,08,30,12,35,22.50
2015,08,30,12,36,22.50
2015,08,30,12,37,20.90
2015,08,30,12,38,14.50
2015,08,30,12,39,19.30
2015,08,30,12,40,16.10
2015,08,30,12,41,16.10
2015,08,30,12,42,19.30
2015,08,30,12,43,16.10
2015,08,30,12,44,16.10
2015,08,30,12,45,9.60
2015,08,30,12,46,20.90
2015,08,30,12,47,20.90
2015,08,30,12,48,19.30
2015,08,30,12,49,16.10
2015,08,30,12,50,11.30
2015,08,30,12,51,20.90
2015,08,30,12,52,22.50
2015,08,30,12,53,12.90
2015,08,30,12,54,19.30
2015,08,30,12,55,19.30
2015,08,30,12,56,19.30
2015,08,30,12,57,19.30
2015,08,30,12,58,19.30
2015,08,30,12,59,19.30
2015,08,30,13,00,16.10
2015,08,30,13,01,16.10
2015,08,30,13,02,20.90
2015,08,30,13,03,17.70
2015,08,30,13,04,9.60
2015,08,30,13,05,14.50
2015,08,30,13,06,16.10
2015,08,30,13,07,17.70
2015,08,30,13,08,9.60
2015,08,30,13,09,11.30
2015,08,30,13,10,19.30
2015,08,30,13,11,17.70
2015,08,30,13,12,22.50
2015,08,30,13,13,19.30
2015,08,30,13,14,16.10
2015,08,30,13,15,14.50
2015,08,30,13,16,17.70
2015,08,30,13,17,16.10
2015,08,30,13,18,17.70
2015,08,30,13,19,12.90
2015,08,30,13,20,16.10
2015,08,30,13,21,14.50
2015,08,30,13,22,11.30
2015,08,30,13,23,14.50
2015,08,30,13,24,11.30
2015,08,30,13,25,16.10
2015,08,30,13,26,17.70
2015,08,30,13,27,19.30
2015,08,30,13,28,16.10
2015,08,30,13,29,11.30
2015,08,30,13,30,4.80
2015,08,30,13,31,8.10
2015,08,30,13,32,14.50
2015,08,30,13,33,20.90
2015,08,30,13,34,20.90
2015,08,30,13,35,16.10
2015,08,30,13,36,20.90
2015,08,30,13,37,22.50
2015,08,30,13,38,19.30
2015,08,30,13,39,19.30
2015,08,30,13,40,11.30
2015,08,30,13,41,11.30
2015,08,30,13,42,11.30
2015,08,30,13,43,20.90
2015,08,30,13,44,22.50
2015,08,30,13,45,20.90
2015,08,30,13,46,20.90
2015,08,30,13,47,16.10
2015,08,30,13,48,16.10
2015,08,30,13,49,16.10
2015,08,30,13,50,19.30
2015,08,30,13,51,20.90
2015,08,30,13,52,17.70
2015,08,30,13,53,22.50
2015,08,30,13,54,19.30
2015,08,30,13,55,17.70
2015,08,30,13,56,20.90
2015,08,30,13,57,20.90
2015,08,30,13,58,24.20
2015,08,30,13,59,22.50
2015,08,30,14,00,22.50
2015,08,30,14,01,24.20
2015,08,30,14,02,24.20
2015,08,30,14,03,11.30
2015,08,30,14,04,14.50
2015,08,30,14,05,20.90
2015,08,30,14,06,20.90
2015,08,30,14,07,20.90
2015,08,30,14,08,19.30
2015,08,30,14,09,24.20
2015,08,30,14,10,24.20
2015,08,30,14,11,20.90
2015,08,30,14,12,24.20
2015,08,30,14,13,22.50
2015,08,30,14,14,20.90
2015,08,30,14,15,22.50
2015,08,30,14,16,22.50
2015,08,30,14,17,19.30
2015,08,30,14,18,22.50
2015,08,30,14,19,16.10
2015,08,30,14,20,11.30
2015,08,30,14,21,20.90
2015,08,30,14,22,19.30
2015,08,30,14,23,22.50
2015,08,30,14,24,22.50
2015,08,30,14,25,17.70
2015,08,30,14,26,17.70
2015,08,30,14,27,19.30
2015,08,30,14,28,20.90
2015,08,30,14,29,22.50
2015,08,30,14,30,22.50
2015,08,30,14,31,19.30
2015,08,30,14,32,25.70
2015,08,30,14,33,16.10
2015,08,30,14,34,14.50
2015,08,30,14,35,14.50
2015,08,30,14,36,17.70
2015,08,30,14,37,24.20
2015,08,30,14,38,12.90
2015,08,30,14,39,12.90
2015,08,30,14,40,16.10
2015,08,30,14,41,14.50
2015,08,30,14,42,17.70
2015,08,30,14,43,17.70
2015,08,30,14,44,19.30
2015,08,30,14,45,17.70
2015,08,30,14,46,20.90
2015,08,30,14,47,20.90
2015,08,30,14,48,25.70
2015,08,30,14,49,17.70
2015,08,30,14,50,19.30
2015,08,30,14,51,22.50
2015,08,30,14,52,20.90
2015,08,30,14,53,16.10
2015,08,30,14,54,19.30
2015,08,30,14,55,16.10
2015,08,30,14,56,14.50
2015,08,30,14,57,17.70
2015,08,30,14,58,11.30
2015,08,30,14,59,12.90
2015,08,30,15,00,9.60
2015,08,30,15,01,19.30
2015,08,30,15,02,17.70
2015,08,30,15,03,16.10
2015,08,30,15,04,14.50
2015,08,30,15,05,14.50
2015,08,30,15,06,9.60
2015,08,30,15,07,17.70
2015,08,30,15,08,19.30
2015,08,30,15,09,16.10
2015,08,30,15,10,19.30
2015,08,30,15,11,16.10
2015,08,30,15,12,19.30
2015,08,30,15,13,16.10
2015,08,30,15,14,16.10
2015,08,30,15,15,17.70
2015,08,30,15,16,16.10
2015,08,30,15,17,11.30
2015,08,30,15,18,16.10
2015,08,30,15,19,16.10
2015,08,30,15,20,14.50
2015,08,30,15,21,17.70
2015,08,30,15,22,16.10
2015,08,30,15,23,19.30
2015,08,30,15,24,16.10
2015,08,30,15,25,9.60
2015,08,30,15,26,17.70
2015,08,30,15,27,16.10
2015,08,30,15,28,19.30
2015,08,30,15,29,14.50
2015,08,30,15,30,16.10
2015,08,30,15,31,12.90
2015,08,30,15,32,19.30
2015,08,30,15,33,14.50
2015,08,30,15,34,17.70
2015,08,30,15,35,17.70
2015,08,30,15,36,19.30
2015,08,30,15,37,14.50
2015,08,30,15,38,11.30
2015,08,30,15,39,11.30
2015,08,30,15,40,11.30
2015,08,30,15,41,14.50
2015,08,30,15,42,17.70
2015,08,30,15,43,17.70
2015,08,30,15,44,11.30
2015,08,30,15,45,8.10
2015,08,30,15,46,19.30
2015,08,30,15,47,20.90
2015,08,30,15,48,6.40
2015,08,30,15,49,8.10
2015,08,30,15,50,19.30
2015,08,30,15,51,14.50
2015,08,30,15,52,25.70
2015,08,30,15,53,20.90
2015,08,30,15,54,16.10
2015,08,30,15,55,17.70
2015,08,30,15,56,19.30
2015,08,30,15,57,11.30
2015,08,30,15,58,17.70
2015,08,30,15,59,17.70
2015,08,30,16,00,16.10
2015,08,30,16,01,11.30
2015,08,30,16,02,19.30
2015,08,30,16,03,20.90
2015,08,30,16,04,20.90
2015,08,30,16,05,9.60
2015,08,30,16,06,9.60
2015,08,30,16,07,9.60
2015,08,30,16,08,11.30
2015,08,30,16,09,11.30
2015,08,30,16,10,11.30
2015,08,30,16,11,12.90
2015,08,30,16,12,19.30
2015,08,30,16,13,19.30
2015,08,30,16,14,11.30
2015,08,30,16,15,14.50
2015,08,30,16,16,14.50
2015,08,30,16,17,29.00
2015,08,30,16,18,24.20
2015,08,30,16,19,22.50
2015,08,30,16,20,16.10
2015,08,30,16,21,14.50
2015,08,30,16,22,9.60
2015,08,30,16,23,12.90
2015,08,30,16,24,16.10
2015,08,30,16,25,25.70
2015,08,30,16,26,20.90
2015,08,30,16,27,20.90
2015,08,30,16,28,24.20
2015,08,30,16,29,20.90
2015,08,30,16,30,17.70
2015,08,30,16,31,12.90
2015,08,30,16,32,14.50
2015,08,30,16,33,16.10
2015,08,30,16,34,16.10
2015,08,30,16,35,11.30
2015,08,30,16,36,9.60
2015,08,30,16,37,9.60
2015,08,30,16,38,9.60
2015,08,30,16,39,8.10
2015,08,30,16,40,9.60
2015,08,30,16,41,11.30
2015,08,30,16,42,16.10
2015,08,30,16,43,9.60
2015,08,30,16,44,11.30
2015,08,30,16,45,16.10
2015,08,30,16,46,16.10
2015,08,30,16,47,9.60
2015,08,30,16,48,11.30
2015,08,30,16,49,9.60
2015,08,30,16,50,11.30
2015,08,30,16,51,14.50
2015,08,30,16,52,9.60
2015,08,30,16,53,4.80
2015,08,30,16,54,8.10
2015,08,30,16,55,9.60
2015,08,30,16,56,9.60
2015,08,30,16,57,14.50
2015,08,30,16,58,14.50
2015,08,30,16,59,6.40
2015,08,30,17,00,6.40
2015,08,30,17,01,9.60
2015,08,30,17,02,11.30
2015,08,30,17,03,9.60
2015,08,30,17,04,11.30
2015,08,30,17,05,9.60
2015,08,30,17,06,11.30
2015,08,30,17,07,11.30
2015,08,30,17,08,11.30
2015,08,30,17,09,9.60
2015,08,30,17,10,6.40
2015,08,30,17,11,9.60
2015,08,30,17,12,16.10
2015,08,30,17,13,14.50
2015,08,30,17,14,11.30
2015,08,30,17,15,11.30
2015,08,30,17,16,16.10
2015,08,30,17,17,9.60
2015,08,30,17,18,11.30
2015,08,30,17,19,11.30
2015,08,30,17,20,9.60
2015,08,30,17,21,8.10
2015,08,30,17,22,11.30
2015,08,30,17,23,11.30
2015,08,30,17,24,12.90
2015,08,30,17,25,14.50
2015,08,30,17,26,9.60
2015,08,30,17,27,9.60
2015,08,30,17,28,14.50
2015,08,30,17,29,12.90
2015,08,30,17,30,11.30
2015,08,30,17,31,8.10
2015,08,30,17,32,11.30
2015,08,30,17,33,4.80
2015,08,30,17,35,11.30
2015,08,30,17,36,8.10
2015,08,30,17,37,6.40
2015,08,30,17,38,11.30
2015,08,30,17,39,8.10
2015,08,30,17,40,14.50
2015,08,30,17,41,12.90
2015,08,30,17,42,8.10
2015,08,30,17,43,9.60
2015,08,30,17,44,8.10
2015,08,30,17,45,11.30
2015,08,30,17,46,11.30
2015,08,30,17,47,6.40
2015,08,30,17,48,6.40
2015,08,30,17,49,8.10
2015,08,30,17,50,11.30
2015,08,30,17,51,11.30
2015,08,30,17,52,9.60
2015,08,30,17,53,6.40
2015,08,30,17,54,6.40
2015,08,30,17,55,4.80
2015,08,30,17,56,9.60
2015,08,30,17,57,6.40
2015,08,30,17,58,8.10
2015,08,30,17,59,6.40
2015,08,30,18,00,8.10
2015,08,30,18,01,8.10
2015,08,30,18,02,8.10
2015,08,30,18,03,9.60
2015,08,30,18,04,6.40
2015,08,30,18,05,4.80
2015,08,30,18,06,6.40
2015,08,30,18,07,4.80
2015,08,30,18,08,1.60
2015,08,30,18,09,6.40
2015,08,30,18,10,6.40
2015,08,30,18,11,8.10
2015,08,30,18,12,4.80
2015,08,30,18,13,1.60
2015,08,30,18,19,4.80
2015,08,30,18,20,6.40
2015,08,30,18,21,6.40
2015,08,30,18,22,3.20
2015,08,30,18,23,1.60
2015,08,30,18,24,4.80
2015,08,30,18,25,6.40
2015,08,30,18,26,8.10
2015,08,30,18,27,8.10
2015,08,30,18,28,6.40
2015,08,30,18,29,8.10
2015,08,30,18,30,9.60
2015,08,30,18,31,9.60
2015,08,30,18,32,9.60
2015,08,30,18,33,9.60
2015,08,30,18,34,11.30
2015,08,30,18,35,6.40
2015,08,30,18,36,4.80
2015,08,30,18,37,8.10
2015,08,30,18,38,6.40
2015,08,30,18,39,4.80
2015,08,30,18,40,3.20
2015,08,30,18,41,4.80
2015,08,30,18,42,1.60
2015,08,30,18,43,8.10
2015,08,30,18,44,8.10
2015,08,30,18,45,9.60
2015,08,30,18,46,8.10
2015,08,30,18,47,11.30
2015,08,30,18,48,8.10
2015,08,30,18,49,9.60
2015,08,30,18,50,9.60
2015,08,30,18,51,9.60
2015,08,30,18,52,14.50
2015,08,30,18,53,11.30
2015,08,30,18,54,8.10
2015,08,30,18,55,6.40
2015,08,30,18,56,9.60
2015,08,30,18,57,8.10
2015,08,30,18,58,14.50
2015,08,30,18,59,14.50
2015,08,30,19,00,20.90
2015,08,30,19,01,16.10
2015,08,30,19,02,14.50
2015,08,30,19,03,17.70
2015,08,30,19,04,12.90
2015,08,30,19,05,8.10
2015,08,30,19,06,9.60
2015,08,30,19,07,8.10
2015,08,30,19,08,8.10
2015,08,30,19,09,9.60
2015,08,30,19,10,14.50
2015,08,30,19,11,9.60
2015,08,30,19,12,9.60
2015,08,30,19,13,9.60
2015,08,30,19,14,8.10
2015,08,30,19,15,8.10
2015,08,30,19,16,8.10
2015,08,30,19,17,9.60
2015,08,30,19,19,16.10
2015,08,30,19,20,11.30
2015,08,30,19,21,9.60
2015,08,30,19,22,6.40
2015,08,30,19,23,6.40
2015,08,30,19,24,8.10
2015,08,30,19,25,11.30
2015,08,30,19,27,12.90
2015,08,30,19,28,11.30
2015,08,30,19,29,16.10
2015,08,30,19,30,14.50
2015,08,30,19,31,14.50
2015,08,30,19,32,9.60
2015,08,30,19,33,16.10
2015,08,30,19,34,14.50
2015,08,30,19,35,16.10
2015,08,30,19,36,16.10
2015,08,30,19,37,9.60
2015,08,30,19,38,9.60
2015,08,30,19,39,11.30
2015,08,30,19,40,11.30
2015,08,30,19,41,8.10
2015,08,30,19,42,6.40
2015,08,30,19,43,8.10
2015,08,30,19,44,11.30
2015,08,30,19,45,19.30
2015,08,30,19,46,19.30
2015,08,30,19,47,11.30
2015,08,30,19,48,9.60
2015,08,30,19,49,11.30
2015,08,30,19,50,16.10
2015,08,30,19,51,24.20
2015,08,30,19,52,17.70
2015,08,30,19,53,16.10
2015,08,30,19,54,17.70
2015,08,30,19,55,8.10
2015,08,30,19,56,11.30
2015,08,30,19,57,9.60
2015,08,30,19,58,20.90
2015,08,30,19,59,17.70
2015,08,30,20,00,14.50
2015,08,30,20,01,9.60
2015,08,30,20,02,9.60
2015,08,30,20,03,11.30
2015,08,30,20,04,14.50
2015,08,30,20,05,22.50
2015,08,30,20,06,11.30
2015,08,30,20,07,14.50
2015,08,30,20,08,3.20
2015,08,30,20,09,11.30
2015,08,30,20,10,12.90
2015,08,30,20,11,11.30
2015,08,30,20,12,16.10
2015,08,30,20,13,9.60
2015,08,30,20,14,22.50
2015,08,30,20,15,14.50
2015,08,30,20,16,11.30
2015,08,30,20,17,11.30
2015,08,30,20,18,8.10
2015,08,30,20,19,8.10
2015,08,30,20,20,9.60
2015,08,30,20,21,14.50
2015,08,30,20,22,16.10
2015,08,30,20,23,14.50
2015,08,30,20,24,6.40
2015,08,30,20,25,14.50
2015,08,30,20,26,14.50
2015,08,30,20,27,11.30
2015,08,30,20,28,6.40
2015,08,30,20,29,6.40
2015,08,30,20,30,6.40
2015,08,30,20,31,9.60
2015,08,30,20,32,11.30
2015,08,30,20,33,11.30
2015,08,30,20,34,9.60
2015,08,30,20,35,11.30
2015,08,30,20,36,9.60
2015,08,30,20,37,14.50
2015,08,30,20,38,8.10
2015,08,30,20,39,11.30
2015,08,30,20,40,11.30
2015,08,30,20,41,9.60
2015,08,30,20,42,11.30
2015,08,30,20,43,14.50
2015,08,30,20,44,14.50
2015,08,30,20,45,11.30
2015,08,30,20,46,6.40
2015,08,30,20,47,16.10
2015,08,30,20,48,11.30
2015,08,30,20,49,8.10
2015,08,30,20,50,8.10
2015,08,30,20,51,11.30
2015,08,30,20,52,9.60
2015,08,30,20,53,9.60
2015,08,30,20,54,9.60
2015,08,30,20,55,11.30
2015,08,30,20,56,9.60
2015,08,30,20,57,6.40
2015,08,30,20,58,8.10
2015,08,30,20,59,4.80
2015,08,30,21,00,6.40
2015,08,30,21,01,6.40
2015,08,30,21,02,4.80
2015,08,30,21,03,6.40
2015,08,30,21,04,8.10
2015,08,30,21,05,4.80
2015,08,30,21,06,11.30
2015,08,30,21,07,8.10
2015,08,30,21,08,9.60
2015,08,30,21,09,9.60
2015,08,30,21,10,11.30
2015,08,30,21,11,11.30
2015,08,30,21,12,8.10
2015,08,30,21,13,8.10
2015,08,30,21,14,9.60
2015,08,30,21,15,8.10
2015,08,30,21,16,11.30
2015,08,30,21,17,6.40
2015,08,30,21,18,6.40
2015,08,30,21,19,4.80
2015,08,30,21,20,6.40
2015,08,30,21,21,1.60
2015,08,30,21,22,3.20
2015,08,30,21,23,3.20
2015,08,30,21,24,3.20
2015,08,30,21,25,4.80
2015,08,30,21,26,4.80
2015,08,30,21,27,4.80
2015,08,30,21,28,9.60
2015,08,30,21,29,6.40
2015,08,30,21,30,8.10
2015,08,30,21,31,8.10
2015,08,30,21,32,11.30
2015,08,30,21,33,8.10
2015,08,30,21,34,9.60
2015,08,30,21,35,9.60
2015,08,30,21,36,8.10
2015,08,30,21,37,14.50
2015,08,30,21,38,14.50
2015,08,30,21,39,6.40
2015,08,30,21,40,16.10
2015,08,30,21,41,9.60
2015,08,30,21,42,9.60
2015,08,30,21,43,11.30
2015,08,30,21,44,16.10
2015,08,30,21,45,11.30
2015,08,30,21,46,8.10
2015,08,30,21,47,9.60
2015,08,30,21,48,12.90
2015,08,30,21,49,11.30
2015,08,30,21,50,14.50
2015,08,30,21,51,16.10
2015,08,30,21,52,14.50
2015,08,30,21,53,11.30
2015,08,30,21,54,14.50
2015,08,30,21,55,11.30
2015,08,30,21,56,12.90
2015,08,30,21,57,14.50
2015,08,30,21,58,16.10
2015,08,30,21,59,16.10
2015,08,30,22,00,14.50
2015,08,30,22,01,14.50
2015,08,30,22,02,14.50
2015,08,30,22,03,16.10
2015,08,30,22,04,14.50
2015,08,30,22,05,9.60
2015,08,30,22,06,12.90
2015,08,30,22,07,11.30
2015,08,30,22,08,11.30
2015,08,30,22,09,17.70
2015,08,30,22,10,19.30
2015,08,30,22,11,17.70
2015,08,30,22,12,16.10
2015,08,30,22,13,11.30
2015,08,30,22,14,12.90
2015,08,30,22,15,8.10
2015,08,30,22,16,11.30
2015,08,30,22,17,16.10
2015,08,30,22,18,9.60
2015,08,30,22,19,9.60
2015,08,30,22,20,17.70
2015,08,30,22,21,11.30
2015,08,30,22,22,9.60
2015,08,30,22,23,14.50
2015,08,30,22,24,8.10
2015,08,30,22,25,16.10
2015,08,30,22,26,11.30
2015,08,30,22,27,14.50
2015,08,30,22,28,9.60
2015,08,30,22,29,14.50
2015,08,30,22,30,12.90
2015,08,30,22,31,17.70
2015,08,30,22,32,14.50
2015,08,30,22,33,16.10
2015,08,30,22,34,11.30
2015,08,30,22,35,17.70
2015,08,30,22,36,14.50
2015,08,30,22,37,17.70
2015,08,30,22,38,11.30
2015,08,30,22,39,11.30
2015,08,30,22,40,11.30
2015,08,30,22,41,9.60
2015,08,30,22,42,9.60
2015,08,30,22,43,6.40
2015,08,30,22,44,8.10
2015,08,30,22,45,8.10
2015,08,30,22,46,9.60
2015,08,30,22,47,9.60
2015,08,30,22,48,9.60
2015,08,30,22,49,11.30
2015,08,30,22,50,8.10
2015,08,30,22,51,4.80
2015,08,30,22,52,6.40
2015,08,30,22,54,11.30
2015,08,30,22,55,11.30
2015,08,30,22,56,9.60
2015,08,30,22,57,8.10
2015,08,30,22,58,11.30
2015,08,30,22,59,11.30
2015,08,30,23,00,8.10
2015,08,30,23,01,8.10
2015,08,30,23,02,9.60
2015,08,30,23,03,8.10
2015,08,30,23,04,16.10
2015,08,30,23,05,11.30
2015,08,30,23,06,16.10
2015,08,30,23,07,14.50
2015,08,30,23,08,11.30
2015,08,30,23,09,6.40
2015,08,30,23,10,4.80
2015,08,30,23,11,11.30
2015,08,30,23,12,11.30
2015,08,30,23,13,11.30
2015,08,30,23,14,16.10
2015,08,30,23,15,16.10
2015,08,30,23,16,19.30
2015,08,30,23,17,17.70
2015,08,30,23,18,16.10
2015,08,30,23,19,12.90
2015,08,30,23,20,14.50
2015,08,30,23,21,14.50
2015,08,30,23,22,8.10
2015,08,30,23,23,8.10
2015,08,30,23,25,6.40
2015,08,30,23,26,9.60
2015,08,30,23,27,9.60
2015,08,30,23,28,11.30
2015,08,30,23,29,9.60
2015,08,30,23,30,9.60
2015,08,30,23,31,9.60
2015,08,30,23,32,11.30
2015,08,30,23,33,1.60
2015,08,30,23,34,3.20
2015,08,30,23,35,6.40
2015,08,30,23,36,4.80
2015,08,30,23,37,8.10
2015,08,30,23,38,6.40
2015,08,30,23,39,8.10
2015,08,30,23,40,6.40
2015,08,30,23,41,8.10
2015,08,30,23,42,9.60
2015,08,30,23,43,6.40
2015,08,30,23,44,4.80
2015,08,30,23,45,6.40
2015,08,30,23,46,1.60
